User: anonymous   Login
Location: Unspecified
(0.0000°N, 0.0000°E)
Time: 05:21:33
(UTC+00:00)
Language:

Nadezhda 5 - Orbit

View from above orbital plane
View from above orbital plane
View from above satellite
View from above satellite

Ground track
Ground track

The orbit data is extracted from the following two-line orbital elements,

1 25567U 98072A   24170.77849260  .00000053  00000-0  42194-4 0  9990
2 25567  82.9478 264.4119 0025050 332.0390 143.8611 13.71974010277782
Epoch (UTC): 18 June 2024 18:41:01
Eccentricity: 0.0025050
inclination: 82.9478°
perigee height: 974 km
apogee height: 1011 km
right ascension of ascending node: 264.4119°
argument of perigee: 332.0390°
revolutions per day: 13.71974010
mean anomaly at epoch: 143.8611°
orbit number at epoch: 27778

The dashed part of the orbit path shows where the satellite is in the earth's shadow,  

DLR